Time,TemperatureF,DewpointF,PressureIn,WindDirection,WindDirectionDegrees,WindSpeedMPH,WindSpeedGustMPH,Humidity,HourlyPrecipIn,Conditions,Clouds,dailyrainin,SoftwareType,DateUTC
2013-05-29 00:09:00,74.9,67.0,29.84,WNW,287,1.0,16.0,77,0.00,,,0.00,weatherlink.com 1.10,2013-05-29 04:09:00,
2013-05-29 00:25:00,74.9,67.0,29.86,NW,323,0.0,11.0,77,0.00,,,0.00,weatherlink.com 1.10,2013-05-29 04:25:00,
2013-05-29 00:40:00,71.0,62.0,29.86,SSW,204,0.0,22.0,73,0.00,,,0.00,weatherlink.com 1.10,2013-05-29 04:40:00,
2013-05-29 00:55:00,69.4,62.0,29.87,NW,314,1.0,8.0,77,0.00,,,0.00,weatherlink.com 1.10,2013-05-29 04:55:00,
2013-05-29 01:10:00,68.3,62.0,29.86,West,261,2.0,4.0,80,0.00,,,0.00,weatherlink.com 1.10,2013-05-29 05:10:00,
2013-05-29 01:25:00,67.8,62.0,29.85,SSW,213,0.0,2.0,81,0.00,,,0.00,weatherlink.com 1.10,2013-05-29 05:25:00,
2013-05-29 01:40:00,67.1,62.0,29.85,SSW,213,0.0,2.0,83,0.00,,,0.00,weatherlink.com 1.10,2013-05-29 05:40:00,
2013-05-29 01:55:00,66.3,62.0,29.86,SSW,213,0.0,2.0,85,0.00,,,0.00,weatherlink.com 1.10,2013-05-29 05:55:00,
2013-05-29 02:10:00,65.9,62.0,29.85,SSW,213,0.0,0.0,86,0.00,,,0.00,weatherlink.com 1.10,2013-05-29 06:10:00,
2013-05-29 02:25:00,65.2,62.0,29.86,SSW,213,0.0,0.0,88,0.00,,,0.00,weatherlink.com 1.10,2013-05-29 06:25:00,
2013-05-29 02:40:00,64.1,62.0,29.85,SSW,213,1.0,1.0,91,0.00,,,0.00,weatherlink.com 1.10,2013-05-29 06:40:00,
2013-05-29 02:55:00,64.1,62.0,29.84,SSW,213,0.0,2.0,92,0.00,,,0.00,weatherlink.com 1.10,2013-05-29 06:55:00,
2013-05-29 03:10:00,66.2,64.0,29.84,SSW,209,2.0,4.0,93,0.00,,,0.00,weatherlink.com 1.10,2013-05-29 07:10:00,
2013-05-29 03:25:00,68.0,66.0,29.84,South,176,5.0,5.0,92,0.00,,,0.00,weatherlink.com 1.10,2013-05-29 07:25:00,
2013-05-29 03:40:00,69.4,66.0,29.84,SSW,212,0.0,10.0,89,0.00,,,0.00,weatherlink.com 1.10,2013-05-29 07:40:00,
2013-05-29 03:55:00,70.0,66.0,29.84,SE,143,1.0,7.0,87,0.00,,,0.00,weatherlink.com 1.10,2013-05-29 07:55:00,
2013-05-29 04:10:00,70.2,66.0,29.84,South,175,3.0,8.0,86,0.00,,,0.00,weatherlink.com 1.10,2013-05-29 08:10:00,
2013-05-29 04:25:00,70.5,66.0,29.85,SW,223,0.0,10.0,85,0.00,,,0.00,weatherlink.com 1.10,2013-05-29 08:25:00,
2013-05-29 04:40:00,70.8,65.0,29.85,SSW,200,6.0,7.0,83,0.00,,,0.00,weatherlink.com 1.10,2013-05-29 08:40:00,
2013-05-29 04:55:00,70.8,65.0,29.86,South,177,0.0,11.0,82,0.00,,,0.00,weatherlink.com 1.10,2013-05-29 08:55:00,
2013-05-29 05:10:00,71.3,65.0,29.85,South,188,2.0,10.0,80,0.00,,,0.00,weatherlink.com 1.10,2013-05-29 09:10:00,
2013-05-29 05:25:00,71.5,64.0,29.85,West,277,1.0,11.0,78,0.00,,,0.00,weatherlink.com 1.10,2013-05-29 09:25:00,
2013-05-29 05:40:00,71.5,64.0,29.85,West,274,1.0,9.0,78,0.00,,,0.00,weatherlink.com 1.10,2013-05-29 09:40:00,
2013-05-29 05:55:00,71.4,64.0,29.85,SSW,200,2.0,9.0,77,0.00,,,0.00,weatherlink.com 1.10,2013-05-29 09:55:00,
2013-05-29 06:10:00,71.0,63.0,29.86,South,169,0.0,8.0,77,0.00,,,0.00,weatherlink.com 1.10,2013-05-29 10:10:00,
2013-05-29 06:25:00,70.7,63.0,29.86,SW,219,4.0,9.0,77,0.00,,,0.00,weatherlink.com 1.10,2013-05-29 10:25:00,
2013-05-29 06:40:00,70.5,63.0,29.85,SW,226,0.0,10.0,77,0.00,,,0.00,weatherlink.com 1.10,2013-05-29 10:40:00,
2013-05-29 06:55:00,70.4,63.0,29.85,SSE,151,3.0,8.0,77,0.00,,,0.00,weatherlink.com 1.10,2013-05-29 10:55:00,
2013-05-29 07:10:00,70.4,63.0,29.86,WSW,239,1.0,11.0,77,0.00,,,0.00,weatherlink.com 1.10,2013-05-29 11:10:00,
2013-05-29 07:25:00,70.2,63.0,29.88,SSE,163,3.0,14.0,78,0.00,,,0.00,weatherlink.com 1.10,2013-05-29 11:25:00,
2013-05-29 07:40:00,70.6,63.0,29.89,WSW,243,2.0,15.0,77,0.00,,,0.00,weatherlink.com 1.10,2013-05-29 11:40:00,
2013-05-29 07:55:00,71.1,64.0,29.90,West,277,6.0,15.0,77,0.00,,,0.00,weatherlink.com 1.10,2013-05-29 11:55:00,
2013-05-29 08:10:00,71.3,64.0,29.91,WNW,288,5.0,10.0,77,0.00,,,0.00,weatherlink.com 1.10,2013-05-29 12:10:00,
2013-05-29 08:25:00,71.1,64.0,29.91,SW,232,0.0,10.0,77,0.00,,,0.00,weatherlink.com 1.10,2013-05-29 12:25:00,
2013-05-29 08:40:00,71.3,64.0,29.92,SW,231,3.0,8.0,77,0.00,,,0.00,weatherlink.com 1.10,2013-05-29 12:40:00,
2013-05-29 08:55:00,71.8,65.0,29.92,WSW,240,5.0,10.0,78,0.00,,,0.00,weatherlink.com 1.10,2013-05-29 12:55:00,
2013-05-29 09:10:00,72.2,65.0,29.92,NE,45,1.0,7.0,78,0.00,,,0.00,weatherlink.com 1.10,2013-05-29 13:10:00,
2013-05-29 09:25:00,72.4,65.0,29.92,West,277,1.0,6.0,77,0.00,,,0.00,weatherlink.com 1.10,2013-05-29 13:25:00,
2013-05-29 09:40:00,72.2,65.0,29.92,WSW,244,0.0,8.0,79,0.00,,,0.00,weatherlink.com 1.10,2013-05-29 13:40:00,
2013-05-29 09:55:00,72.0,66.0,29.92,SSW,207,1.0,8.0,80,0.00,,,0.00,weatherlink.com 1.10,2013-05-29 13:55:00,
2013-05-29 10:10:00,72.1,66.0,29.92,SW,234,0.0,6.0,80,0.00,,,0.00,weatherlink.com 1.10,2013-05-29 14:10:00,
2013-05-29 10:25:00,72.5,66.0,29.92,SSW,200,0.0,7.0,80,0.00,,,0.00,weatherlink.com 1.10,2013-05-29 14:25:00,
2013-05-29 10:40:00,73.1,66.0,29.92,SW,236,0.0,7.0,78,0.00,,,0.00,weatherlink.com 1.10,2013-05-29 14:40:00,
2013-05-29 10:55:00,73.5,66.0,29.93,SW,236,1.0,9.0,77,0.00,,,0.00,weatherlink.com 1.10,2013-05-29 14:55:00,
2013-05-29 11:10:00,74.1,66.0,29.93,WSW,249,4.0,7.0,77,0.00,,,0.00,weatherlink.com 1.10,2013-05-29 15:10:00,
2013-05-29 11:25:00,74.6,67.0,29.94,South,186,0.0,8.0,77,0.00,,,0.00,weatherlink.com 1.10,2013-05-29 15:25:00,
2013-05-29 11:40:00,75.6,68.0,29.95,West,266,1.0,6.0,76,0.00,,,0.00,weatherlink.com 1.10,2013-05-29 15:40:00,
2013-05-29 11:56:00,76.7,67.0,29.95,WSW,250,2.0,6.0,73,0.00,,,0.00,weatherlink.com 1.10,2013-05-29 15:56:00,
2013-05-29 12:11:00,77.8,69.0,29.95,South,184,1.0,8.0,73,0.00,,,0.00,weatherlink.com 1.10,2013-05-29 16:11:00,
2013-05-29 12:26:00,78.9,70.0,29.95,WSW,242,3.0,10.0,73,0.00,,,0.00,weatherlink.com 1.10,2013-05-29 16:26:00,
2013-05-29 12:41:00,79.5,70.0,29.95,SSW,194,1.0,8.0,72,0.00,,,0.00,weatherlink.com 1.10,2013-05-29 16:41:00,
2013-05-29 12:56:00,79.7,69.0,29.94,SSW,212,4.0,8.0,70,0.00,,,0.00,weatherlink.com 1.10,2013-05-29 16:56:00,
2013-05-29 13:11:00,79.7,70.0,29.95,SSW,203,5.0,11.0,71,0.00,,,0.00,weatherlink.com 1.10,2013-05-29 17:11:00,
2013-05-29 13:26:00,79.8,69.0,29.94,West,263,0.0,9.0,70,0.00,,,0.00,weatherlink.com 1.10,2013-05-29 17:26:00,
2013-05-29 13:41:00,79.4,68.0,29.95,ENE,74,2.0,9.0,69,0.00,,,0.00,weatherlink.com 1.10,2013-05-29 17:41:00,
2013-05-29 13:56:00,80.7,69.0,29.94,SSW,202,0.0,12.0,68,0.00,,,0.00,weatherlink.com 1.10,2013-05-29 17:56:00,
2013-05-29 14:11:00,80.9,70.0,29.95,WSW,253,0.0,9.0,69,0.00,,,0.00,weatherlink.com 1.10,2013-05-29 18:11:00,
2013-05-29 14:26:00,80.9,69.0,29.94,WNW,294,0.0,5.0,68,0.00,,,0.00,weatherlink.com 1.10,2013-05-29 18:26:00,
2013-05-29 14:41:00,81.7,70.0,29.94,SW,215,2.0,8.0,68,0.00,,,0.00,weatherlink.com 1.10,2013-05-29 18:41:00,
2013-05-29 14:56:00,82.5,70.0,29.94,NNW,330,0.0,7.0,66,0.00,,,0.00,weatherlink.com 1.10,2013-05-29 18:56:00,
2013-05-29 15:11:00,82.6,69.0,29.94,WSW,256,1.0,9.0,63,0.00,,,0.00,weatherlink.com 1.10,2013-05-29 19:11:00,
2013-05-29 15:26:00,82.7,68.0,29.93,South,173,3.0,11.0,62,0.00,,,0.00,weatherlink.com 1.10,2013-05-29 19:26:00,
2013-05-29 15:41:00,82.2,68.0,29.93,SW,218,0.0,10.0,62,0.00,,,0.00,weatherlink.com 1.10,2013-05-29 19:41:00,
2013-05-29 15:56:00,82.9,68.0,29.93,South,175,2.0,11.0,62,0.00,,,0.00,weatherlink.com 1.10,2013-05-29 19:56:00,
2013-05-29 16:11:00,83.7,68.0,29.93,SW,230,4.0,13.0,60,0.00,,,0.00,weatherlink.com 1.10,2013-05-29 20:11:00,
2013-05-29 16:26:00,83.8,69.0,29.92,WSW,240,6.0,7.0,61,0.00,,,0.00,weatherlink.com 1.10,2013-05-29 20:26:00,
2013-05-29 16:41:00,83.9,67.0,29.92,SSE,150,4.0,11.0,58,0.00,,,0.00,weatherlink.com 1.10,2013-05-29 20:41:00,
2013-05-29 16:56:00,83.3,67.0,29.92,South,180,2.0,10.0,58,0.00,,,0.00,weatherlink.com 1.10,2013-05-29 20:56:00,
2013-05-29 17:11:00,83.2,68.0,29.92,SSW,200,5.0,7.0,61,0.00,,,0.00,weatherlink.com 1.10,2013-05-29 21:11:00,
2013-05-29 17:26:00,83.2,68.0,29.91,SW,229,2.0,7.0,60,0.00,,,0.00,weatherlink.com 1.10,2013-05-29 21:26:00,
2013-05-29 17:41:00,82.9,67.0,29.92,ESE,123,1.0,9.0,59,0.00,,,0.00,weatherlink.com 1.10,2013-05-29 21:41:00,
2013-05-29 17:56:00,83.4,68.0,29.92,South,170,2.0,9.0,61,0.00,,,0.00,weatherlink.com 1.10,2013-05-29 21:56:00,
2013-05-29 18:11:00,82.2,67.0,29.92,SW,234,4.0,7.0,61,0.00,,,0.00,weatherlink.com 1.10,2013-05-29 22:11:00,
2013-05-29 18:26:00,81.8,65.0,29.92,SW,227,1.0,9.0,58,0.00,,,0.00,weatherlink.com 1.10,2013-05-29 22:26:00,
2013-05-29 18:41:00,82.2,66.0,29.91,SW,217,0.0,6.0,59,0.00,,,0.00,weatherlink.com 1.10,2013-05-29 22:41:00,
2013-05-29 18:56:00,82.0,66.0,29.91,SSW,200,5.0,8.0,59,0.00,,,0.00,weatherlink.com 1.10,2013-05-29 22:56:00,
2013-05-29 19:11:00,82.3,66.0,29.91,East,88,7.0,8.0,59,0.00,,,0.00,weatherlink.com 1.10,2013-05-29 23:11:00,
2013-05-29 19:26:00,81.7,66.0,29.91,SSW,210,4.0,7.0,60,0.00,,,0.00,weatherlink.com 1.10,2013-05-29 23:26:00,
2013-05-29 19:41:00,80.6,66.0,29.90,South,182,1.0,8.0,62,0.00,,,0.00,weatherlink.com 1.10,2013-05-29 23:41:00,
2013-05-29 19:56:00,80.0,66.0,29.90,SSW,194,0.0,6.0,63,0.00,,,0.00,weatherlink.com 1.10,2013-05-29 23:56:00,
2013-05-29 20:11:00,79.3,67.0,29.91,SSW,202,1.0,5.0,65,0.00,,,0.00,weatherlink.com 1.10,2013-05-30 00:11:00,
2013-05-29 20:26:00,78.5,66.0,29.91,South,184,0.0,2.0,66,0.00,,,0.00,weatherlink.com 1.10,2013-05-30 00:26:00,
2013-05-29 20:41:00,77.5,66.0,29.91,South,184,0.0,1.0,68,0.00,,,0.00,weatherlink.com 1.10,2013-05-30 00:41:00,
2013-05-29 20:56:00,76.7,66.0,29.91,SSE,167,1.0,3.0,69,0.00,,,0.00,weatherlink.com 1.10,2013-05-30 00:56:00,
2013-05-29 21:11:00,76.1,66.0,29.91,South,175,0.0,3.0,70,0.00,,,0.00,weatherlink.com 1.10,2013-05-30 01:11:00,
2013-05-29 21:26:00,75.0,65.0,29.91,South,175,0.0,2.0,72,0.00,,,0.00,weatherlink.com 1.10,2013-05-30 01:26:00,
2013-05-29 21:41:00,73.7,65.0,29.91,South,175,1.0,2.0,75,0.00,,,0.00,weatherlink.com 1.10,2013-05-30 01:41:00,
2013-05-29 21:56:00,72.4,65.0,29.92,South,175,0.0,1.0,77,0.00,,,0.00,weatherlink.com 1.10,2013-05-30 01:56:00,
2013-05-29 22:11:00,71.2,65.0,29.93,South,175,1.0,2.0,80,0.00,,,0.00,weatherlink.com 1.10,2013-05-30 02:11:00,
2013-05-29 22:26:00,70.3,64.0,29.94,South,175,0.0,1.0,81,0.00,,,0.00,weatherlink.com 1.10,2013-05-30 02:26:00,
2013-05-29 22:41:00,70.0,64.0,29.94,South,175,0.0,3.0,82,0.00,,,0.00,weatherlink.com 1.10,2013-05-30 02:41:00,
2013-05-29 22:56:00,69.8,64.0,29.94,South,175,2.0,3.0,83,0.00,,,0.00,weatherlink.com 1.10,2013-05-30 02:56:00,
2013-05-29 23:11:00,69.5,64.0,29.93,South,175,1.0,3.0,83,0.00,,,0.00,weatherlink.com 1.10,2013-05-30 03:11:00,
2013-05-29 23:26:00,68.8,64.0,29.93,South,175,0.0,1.0,84,0.00,,,0.00,weatherlink.com 1.10,2013-05-30 03:26:00,
2013-05-29 23:41:00,68.5,64.0,29.93,South,175,1.0,1.0,85,0.00,,,0.00,weatherlink.com 1.10,2013-05-30 03:41:00,
2013-05-29 23:56:00,68.6,64.0,29.93,South,175,2.0,3.0,85,0.00,,,0.00,weatherlink.com 1.10,2013-05-30 03:56:00,